CZ-4B DEB, 46484

Orbit data source: Space-Track

CZ-4B DEB, 46484 is space debris in SSO originally from a launch on Sun, 27 Sep 2020 UTC launched from the Taiyaun Space Center, China (TSC). Debris objects in space refer to the collection of defunct objects orbiting the Earth. Examples of debris include non-operational satellites, rocket bodies, and fragments generated from explosions, collisions, or faulty payload assembly.

Loading next visibility...
Identifier
46484, 2020-067G
Orbit
SSO
Last TLE update
23 hours ago
Origin
Manufacturer
SAST
Mission
Spacecraft
Bus & Motor
Unknown
Mass
Unknown
Launch date (UTC)
2020-09-27 (5 years ago)
Launch vehicle
Unknown
Launch site
Taiyaun Space Center, China (TSC)
Object type
Payload
Rocket body
Debris
Shape & HBR
Unknown
Radar Cross Section
Small (<0.1 m²)

Expand to show TLE details & history

TLE from 23 hours ago
0 CZ-4B DEB
1 46484U 20067G   25128.43941876  .00005848  00000-0  55230-3 0  9994
2 46484  97.6759 186.5854 0036752 310.1771  49.6233 14.93589722249441
Epoch: 2025-05-08T10:32Z
Definitive object data (Epoch: 2025-05-08T10:32:45.78Z)
Latitude
-0.00003°
Longitude
161.88476°
Altitude
573.269 km
Speed
7.583 km/s
True Right ascension
12h 26m 20s
True Declination
0° 00' 00"
Sunlit
Object was in full shadow at TLE epoch
Visualization TLE readout
Latitude
76.80846°
Longitude
127.9332°
Altitude
616.889 km
Speed
7.548 km/s
Apparent Right ascension
06h 35m 05s
Apparent Declination
25° 36' 45"
Sunlit
Object is in daylight
Visualization observer readout
Local Sidereal Time
17:33:52
Azimuth
345.023° N
Elevation
-22.937°
Doppler factor
1
Orbital elements
Apogee altitude
609.353 km
Perigee altitude
558.18 km
Semi-major axis
6,961.903 km
Eccentricity
0.0036752
Inclination
97.6759°
RAAN
186.5854°
Arg. of periapsis
310.1771°
True anomaly
49.94509°
Mean anomaly
49.6233°
Eccentric anomaly
49.7841°
Mean motion
3.73638 °/min
BSTAR
0.0005523
Orbital period
96.35 mins
Loading maneuver chart data...
Loading SW <> Apogee altitude chart data...
Loading historical data...
Loading historical data...
Loading historical data...
Loading historical data...
Loading historical data...
Loading historical data...
Loading historical data...

CZ-4B DEB Visibility forecast

Observer location: undefined°, undefined°

Span
Click to sort rows by Start time (UTC) header in descending order
Start Az.
Max El. time (UTC)
Max El. Az.
Max El.
End time (UTC)
End Az.
7 mins2025-05-09 16:03:32.893Z35.234° NE2025-05-09 16:07:32.893Z109.334° ESE26.825°2025-05-09 16:10:32.893Z157.371° SSE
5 mins2025-05-09 17:40:32.893Z325.36° NNW2025-05-09 17:42:32.893Z288.032° WNW20.2°2025-05-09 17:45:32.893Z242.653° WSW
4 mins2025-05-10 02:54:32.893Z97.649° ESE2025-05-10 02:56:32.893Z60.833° ENE18.352°2025-05-10 02:58:32.893Z28.327° NE
5 mins2025-05-10 04:29:32.893Z216.817° SW2025-05-10 04:31:32.893Z266.249° W28.224°2025-05-10 04:34:32.893Z322.907° NNW
|